DW4933 Weather Reports


time (UTC)temp
C
wind
direction
speed
KPH
gust
KPH
rain 1hr
cm
rain 24hr
cm
rain mn
cm
humidity
%
barometer
mb
20260506160022 15 309 0.0 0.0 0.08 1.07 0.76 89 1005.4
20260506154520 15 99 0.0 0.0 0.08 1.04 0.71 90 1005.4
20260506153018 14 285 0.0 0.0 0.10 1.04 0.71 90 1005.4
20260506151529 14 236 0.0 0.0 0.08 1.02 0.71 90 1005.7
20260506150015 14 267 0.0 0.0 0.08 0.99 0.69 90 1005.4
20260506144514 13 271 0.0 0.0 0.10 0.97 0.66 92 1005.2
20260506143013 14 220 0.0 0.0 0.00 0.00 0.64 94 1005.5
20260506141511 13 220 0.0 0.0 0.20 0.94 0.64 93 1005.5
20260506140009 13 219 0.0 0.0 0.25 0.91 0.61 93 1005.5
20260506134507 13 236 0.0 0.0 0.30 0.86 0.56 92 1005.6
20260506133005 13 274 0.0 0.0 0.36 0.81 0.51 91 1006.0
20260506131510 13 98 0.0 0.0 0.33 0.71 0.43 90 1006.3
20260506130004 13 78 0.0 0.0 0.28 0.66 0.36 92 1006.1
20260506124501 13 304 0.0 0.0 0.15 0.53 0.23 94 1006.5
20260506123100 12 230 0.0 0.0 0.08 0.46 0.15 95 1006.1
20260506121556 12 91 0.0 0.0 0.03 0.41 0.10 95 1006.0
20260506120052 -17 0.0 0.0 0.00 0.38 0.08 1006.0
20260506114556 -17 0.0 0.0 0.00 0.38 0.08 1006.4
20260506113049 -17 0.0 0.0 0.03 0.38 0.08 1006.3
20260506111540 -17 0.0 0.0 0.05 0.38 0.08 1006.3
20260506110037 -17 0.0 0.0 0.08 0.38 0.08 1006.4
20260506104540 11 93 0.0 0.0 0.08 0.38 0.08 93 1006.6
20260506103036 11 91 0.0 0.0 0.05 0.36 0.05 93 1006.4
20260506101539 11 91 0.0 0.0 0.03 0.33 0.03 93 1006.2
20260506100032 11 91 0.0 0.0 0.00 0.30 0.00 92 1006.1
20260506094530 11 92 0.0 0.0 0.00 0.30 0.00 92 1005.9
20260506093028 11 91 0.0 0.0 0.00 0.30 0.00 91 1005.9
20260506091526 11 91 0.0 0.0 0.00 0.30 0.00 90 1006.1
20260506090024 11 91 0.0 0.0 0.00 0.30 0.00 90 1006.2
20260506084532 11 91 0.0 0.0 0.00 0.30 0.00 88 1006.7
20260506083020 11 91 0.0 0.0 0.00 0.30 0.00 87 1006.7
20260506081523 11 91 0.0 0.0 0.00 0.30 0.00 86 1006.5
20260506073015 12 91 0.0 0.0 0.00 0.30 0.00 87 1006.5
20260506071514 12 91 0.0 0.0 0.00 0.30 0.00 87 1006.4
20260506061506 12 91 0.0 0.0 0.00 0.30 0.00 87 1007.0
20260506044632 12 281 0.0 0.0 0.00 0.30 0.00 87 1008.2
20260506043054 12 281 0.0 0.0 0.00 0.30 0.00 87 1008.0
20260506041551 13 281 0.0 0.0 0.00 0.30 0.00 86 1008.1
20260506040048 13 281 0.0 0.0 0.00 0.30 0.00 86 1008.4
20260506034546 13 281 0.0 0.0 0.00 0.30 0.30 86 1008.7
20260506033044 13 263 0.0 0.0 0.00 0.30 0.30 86 1008.6
20260506031542 13 263 0.0 0.0 0.00 0.30 0.30 87 1008.4
20260506030040 13 115 0.0 0.0 0.00 0.30 0.30 86 1008.4
20260506024536 15 125 0.0 0.0 0.00 0.30 0.30 87 1008.3
20260506023043 15 91 0.0 0.0 0.00 0.30 0.30 91 1008.2
20260506021534 15 98 0.0 0.0 0.00 0.30 0.30 92 1007.9
20260506020031 15 98 0.0 0.0 0.00 0.30 0.30 92 1007.7
20260506014525 15 98 0.0 0.0 0.00 0.30 0.30 92 1007.6
20260506013024 15 98 0.0 0.0 0.00 0.30 0.30 92 1007.5
20260506011522 15 263 0.0 0.0 0.00 0.30 0.30 92 1007.1
20260506010040 15 263 0.0 0.0 0.00 0.30 0.30 91 1006.9
20260506004525 15 263 0.0 0.0 0.00 0.30 0.30 91 1006.7
20260506003020 15 263 0.0 0.0 0.00 0.30 0.30 91 1006.3
20260506001519 16 263 0.0 0.0 0.00 0.30 0.30 91 1006.3
20260506000017 16 263 0.0 0.0 0.00 0.30 0.30 90 1006.1
20260505234531 16 263 0.0 0.0 0.00 0.30 0.30 90 1006.2
20260505233013 16 263 0.0 0.0 0.00 0.30 0.30 90 1006.1
20260505231513 16 263 0.0 0.0 0.03 0.30 0.30 89 1006.0
20260505230011 16 263 0.0 0.0 0.03 0.30 0.30 89 1006.0
20260505224511 17 263 0.0 0.0 0.03 0.30 0.30 88 1005.9
20260505223010 17 263 0.0 0.0 0.03 0.30 0.30 86 1005.8
20260505221509 17 80 0.0 0.0 0.00 0.28 0.28 84 1006.0
20260505220008 18 80 0.0 0.0 0.00 0.28 0.28 82 1005.4
20260505214508 18 114 0.0 0.0 0.00 0.28 0.28 78 1005.4
20260505213008 18 114 0.0 0.0 0.00 0.28 0.28 82 1005.1
20260505211505 18 108 0.0 0.0 0.00 0.28 0.28 83 1005.3
20260505210003 17 107 0.0 0.0 0.03 0.28 0.28 87 1005.4
20260505204502 16 287 0.0 0.0 0.28 0.28 0.28 89 1005.6
20260505203005 16 287 0.0 0.0 0.28 0.28 0.28 88 1005.8
20260505201559 17 287 0.0 0.0 0.28 0.28 0.28 86 1005.9
20260505200106 17 273 0.0 0.0 0.25 0.25 0.25 79 1006.0
20260505194605 24 252 3.2 16.1 0.00 0.00 0.00 39 1004.5
20260505193053 25 277 0.0 17.7 0.00 0.00 0.00 38 1003.5
20260505191556 25 98 0.0 20.9 0.00 0.00 0.00 37 1003.4
20260505190049 25 217 0.0 22.5 0.00 0.00 0.00 39 1003.8
20260505184548 25 256 0.0 6.4 0.00 0.00 0.00 38 1003.8
20260505183046 25 277 0.0 20.9 0.00 0.00 0.00 41 1004.3
20260505181542 25 287 3.2 20.9 0.00 0.00 0.00 41 1004.6
20260505174557 23 313 3.2 20.9 0.00 0.00 0.00 43 1004.9
20260505173045 23 304 0.0 14.5 0.00 0.00 0.00 43 1005.0
20260505171538 24 184 0.0 17.7 0.00 0.00 0.00 43 1005.1
20260505170037 24 231 1.6 14.5 0.00 0.00 0.00 42 1004.8
20260505164535 24 304 0.0 17.7 0.00 0.00 0.00 42 1004.9
20260505163034 25 300 0.0 17.7 0.00 0.00 0.00 42 1005.2
20260505161535 25 288 4.8 22.5 0.00 0.00 0.00 41 1005.4